This demonstration page uses our WeatherBlox Daily Observations layout. Learn more.

Left ArrowRight Arrow

34.74481, -87.66753

Hourly Observations for December 9, 2017

Temp ( °F °C ) Dew Point ( °F °C ) Humidity (%) Winds ( mph kmh ) Pressure ( in mb ) Visibility ( mi km ) Precip ( " mm )
12:53 am 00:53 Clear 29 -1.7 19 -7.2 66 66 Calm 30.04 1017 10 16 0.00 0.00
1:53 am 01:53 Clear 27 -2.8 19 -7.2 72 72 WNW 3 6 30.04 1017 10 16 0.00 0.00
2:53 am 02:53 Clear 26 -3.3 16 -8.9 66 66 WNW 6 9 30.05 1018 10 16 0.00 0.00
3:53 am 03:53 Clear 27 -2.8 16 -8.9 63 63 Calm 30.06 1018 10 16 0.00 0.00
4:53 am 04:53 Clear 23 -5 16 -8.9 74 74 W 5 7 30.06 1018 10 16 0.00 0.00
5:53 am 05:53 Clear 24 -4.4 18 -7.8 77 77 S 3 6 30.04 1017 10 16 0.00 0.00
6:53 am 06:53 Sunny 23 -5 18 -7.8 81 81 Calm 30.03 1017 10 16 0.00 0.00
7:53 am 07:53 Sunny 28 -2.2 19 -7.2 69 69 WSW 6 9 30.03 1017 10 16 0.00 0.00
8:53 am 08:53 Sunny 34 1.1 19 -7.2 54 54 W 10 17 30.03 1017 10 16 0.00 0.00
9:53 am 09:53 Cloudy 38 3.3 18 -7.8 44 44 W 13 20 30.03 1017 10 16 0.00 0.00
10:53 am 10:53 Sunny 42 5.6 17 -8.3 36 36 W 14 22 30.00 1016 10 16 0.00 0.00
11:53 am 11:53 Sunny 45 7.2 18 -7.8 34 34 W 10 17 29.98 1015 10 16 0.00 0.00
12:53 pm 12:53 Mostly Cloudy 45 7.2 21 -6.1 39 39 W 21 33 29.97 1015 10 16 0.00 0.00
1:53 pm 13:53 Mostly Cloudy 46 7.8 22 -5.6 38 38 WNW 20 31 29.99 1016 10 16 0.00 0.00
2:53 pm 14:53 Partly Cloudy 46 7.8 23 -5 40 40 WNW 22 35 30.02 1017 10 16 0.00 0.00
3:53 pm 15:53 Sunny 45 7.2 23 -5 42 42 NW 13 20 30.05 1018 10 16 0.00 0.00
4:53 pm 16:53 Clear 42 5.6 22 -5.6 45 45 NNW 12 19 30.10 1019 10 16 0.00 0.00
5:53 pm 17:53 Clear 38 3.3 22 -5.6 52 52 NNW 13 20 30.16 1022 10 16 0.00 0.00
6:53 pm 18:53 Clear 36 2.2 21 -6.1 55 55 NNW 9 15 30.20 1023 10 16 0.00 0.00
7:53 pm 19:53 Clear 34 1.1 21 -6.1 59 59 N 3 6 30.22 1023 10 16 0.00 0.00
8:53 pm 20:53 Clear 32 0 21 -6.1 64 64 Calm 30.24 1024 10 16 0.00 0.00
9:53 pm 21:53 Clear 31 -0.6 21 -6.1 67 67 Calm 30.24 1024 10 16 0.00 0.00
10:53 pm 22:53 Clear 26 -3.3 21 -6.1 81 81 Calm 30.26 1025 10 16 0.00 0.00
11:53 pm 23:53 Clear 26 -3.3 21 -6.1 81 81 Calm 30.27 1025 10 16 0.00 0.00

Powered by AerisWeather